カタログに戻る

STARLINK-34225

運用中通信VLEO
NORAD 64414·PAYLOAD·🇺🇸 United States

打ち上げ Jun 17, 2025 から Vandenberg Space Force Base

Loading…

次のパス (今後24時間)

TLE

最新Source: CelesTrak SupGP

元期: Sep 15, 2026, 03:52 UTC

1 64414C 25129C   26258.16159722  .00005270  00000+0  18348-3 0  2582
2 64414  70.0001 314.9148 0003339 266.1341  98.3751 15.29550140    16

AllMySatでSTARLINK-34225をリアルタイム追跡

Download on the App Store